period_start,C,m1,H,J0,J1,J2,J3,J4,J5,JA,JB,JC,JD,JJ,JK,JN,#
2015-11-26 00:01:38,0.08,1.26,0.00,17.61,21.83,25.68,14.92,49.80,1021.95,2056.01,3082.15,2801.47,3094.24,599.76,609.98,21.59,0000 0000 0000 0000 000000
2015-11-26 00:06:39,0.08,1.27,0.00,17.62,21.85,25.70,14.88,49.64,1021.93,2055.99,3080.37,2800.32,3092.85,599.75,609.95,21.64,0000 0000 0000 0000 000000
2015-11-26 00:11:41,0.08,1.27,0.00,17.62,21.87,25.72,14.99,50.05,1021.91,2055.98,3078.55,2799.16,3091.54,600.68,610.91,21.69,0000 0000 0000 0000 000000
2015-11-26 00:16:42,0.11,1.28,0.00,17.62,21.89,25.72,14.89,49.77,1021.91,2055.98,3076.51,2797.81,3090.01,600.05,610.28,21.74,0000 0000 0000 0000 000000
2015-11-26 00:21:43,0.10,1.28,0.00,17.62,21.91,25.73,14.93,49.84,1021.99,2055.97,3074.34,2796.54,3088.49,599.99,610.39,21.79,0000 0000 0000 0000 000000
2015-11-26 00:26:44,0.11,1.29,0.00,17.62,21.93,25.76,14.87,49.63,1022.02,2055.93,3072.12,2795.05,3086.71,599.60,609.95,21.84,0000 0000 0000 0000 000000
2015-11-26 00:31:46,0.08,1.29,0.00,17.62,21.94,25.82,15.00,49.94,1021.99,2055.79,3070.15,2793.73,3085.26,600.24,610.40,21.89,0000 0000 0000 0000 000000
2015-11-26 00:36:47,0.08,1.30,0.00,17.61,21.97,25.79,15.00,49.81,1022.00,2055.50,3068.08,2792.47,3083.70,599.96,610.26,21.94,0000 0000 0000 0000 000000
2015-11-26 00:41:48,0.08,1.30,0.00,17.59,21.98,25.80,15.02,50.17,1021.98,2055.27,3065.81,2791.14,3082.13,600.52,610.86,21.99,0000 0000 0000 0000 000000
2015-11-26 00:46:49,0.11,1.31,0.00,17.59,21.99,25.86,14.95,50.04,1021.83,2055.10,3063.39,2789.61,3080.41,599.83,610.17,22.04,0000 0000 0000 0000 000000
2015-11-26 00:51:50,0.11,1.31,0.00,17.58,22.01,25.86,14.92,49.91,1021.92,2055.08,3060.96,2788.08,3078.61,599.47,609.76,22.09,0000 0000 0000 0000 000000
2015-11-26 00:56:52,0.11,1.32,0.00,17.56,22.02,25.86,14.99,49.99,1021.98,2055.03,3058.61,2786.61,3076.97,599.99,610.37,22.14,0000 0000 0000 0000 000000
2015-11-26 01:01:53,0.09,1.32,0.00,17.56,22.04,25.93,15.06,50.10,1021.67,2055.01,3056.43,2785.33,3075.45,600.05,610.24,22.19,0000 0000 0000 0000 000000
2015-11-26 01:06:54,0.11,1.33,0.00,17.55,22.04,25.93,14.92,50.29,1021.59,2055.02,3054.17,2783.94,3073.80,600.04,610.38,22.24,0000 0000 0000 0000 000000
2015-11-26 01:11:56,0.11,1.34,0.00,17.56,22.06,25.99,14.97,50.15,1021.50,2055.00,3052.03,2782.51,3072.34,599.87,610.02,22.29,0000 0000 0000 0000 000000
2015-11-26 01:16:57,0.09,1.34,0.00,17.56,22.07,25.92,15.09,50.07,1021.71,2055.00,3050.02,2781.26,3070.85,600.00,610.20,22.34,0000 0000 0000 0000 000000
2015-11-26 01:21:58,0.09,1.35,0.00,17.55,22.08,25.98,15.03,50.04,1021.57,2055.00,3048.03,2780.02,3069.48,600.04,610.18,22.39,0000 0000 0000 0000 000000
2015-11-26 01:27:00,0.10,1.35,0.00,17.54,22.09,25.99,14.97,49.92,1021.64,2055.00,3046.00,2778.78,3068.11,600.20,610.30,22.44,0000 0000 0000 0000 000000
2015-11-26 01:32:01,0.10,1.35,0.00,17.55,22.09,26.02,14.93,49.71,1021.59,2054.99,3043.94,2777.51,3066.69,599.66,609.88,22.49,0000 0000 0000 0000 000000
2015-11-26 01:37:02,0.09,1.36,0.00,17.57,22.10,25.94,14.94,49.86,1021.50,2054.99,3041.69,2776.11,3065.15,599.84,609.94,22.54,0000 0000 0000 0000 000000
2015-11-26 01:42:03,0.11,1.37,0.00,17.57,22.12,25.99,14.95,50.03,1021.46,2054.99,3039.49,2774.73,3063.67,600.09,610.17,22.59,0000 0000 0000 0000 000000
2015-11-26 01:47:05,0.09,1.37,0.00,17.59,22.12,26.00,14.99,49.98,1021.19,2054.98,3037.32,2773.45,3062.20,600.10,609.97,22.64,0000 0000 0000 0000 000000
2015-11-26 01:52:06,0.09,1.38,0.00,17.58,22.13,26.05,14.98,50.01,1021.21,2054.98,3035.39,2772.23,3060.75,599.68,609.57,22.69,0000 0000 0000 0000 000000
2015-11-26 01:57:07,0.09,1.38,0.00,17.59,22.14,26.01,15.00,50.04,1021.03,2054.99,3033.53,2771.08,3059.52,600.17,609.96,22.74,0000 0000 0000 0000 000000
2015-11-26 02:02:09,0.11,1.39,0.00,17.59,22.14,26.00,14.92,49.88,1021.02,2054.96,3031.58,2769.70,3057.96,599.93,609.65,22.79,0000 0000 0000 0000 000000
2015-11-26 02:07:10,0.10,1.39,0.00,17.62,22.15,26.00,14.97,49.90,1021.02,2054.98,3029.65,2768.58,3056.65,600.29,609.97,22.84,0000 0000 0000 0000 000000
2015-11-26 02:12:12,0.08,1.40,0.00,17.63,22.17,25.98,15.05,50.02,1021.16,2054.95,3027.85,2767.41,3055.31,600.41,610.18,22.89,0000 0000 0000 0000 000000
2015-11-26 02:17:13,0.08,1.40,0.00,17.65,22.17,26.05,14.93,49.72,1021.27,2054.94,3026.09,2766.24,3053.90,600.00,609.74,22.95,0000 0000 0000 0000 000000
2015-11-26 02:22:14,0.08,1.41,0.00,17.67,22.17,25.98,14.91,49.98,1021.05,2054.94,3024.44,2765.19,3052.61,599.92,609.49,23.00,0000 0000 0000 0000 000000
2015-11-26 02:27:15,0.09,1.41,0.00,17.68,22.19,25.99,14.96,50.17,1020.88,2054.91,3022.70,2764.03,3051.36,599.76,609.23,23.05,0000 0000 0000 0000 000000
2015-11-26 02:32:16,0.08,1.41,0.00,17.68,22.19,26.01,15.01,50.26,1021.02,2054.90,3020.94,2762.91,3049.98,600.15,609.63,23.10,0000 0000 0000 0000 000000
2015-11-26 02:37:17,0.08,1.42,0.00,17.69,22.20,26.00,15.02,49.92,1021.18,2054.71,3019.19,2761.75,3048.66,600.14,609.78,23.15,0000 0000 0000 0000 000000
2015-11-26 02:42:18,0.06,1.42,0.00,17.71,22.21,26.04,14.97,49.89,1021.39,2054.44,3017.53,2760.61,3047.34,600.05,609.79,23.20,0000 0000 0000 0000 000000
2015-11-26 02:47:19,0.07,1.42,0.00,17.73,22.22,26.02,14.97,49.94,1021.38,2054.21,3015.78,2759.52,3045.89,600.02,609.72,23.25,0000 0000 0000 0000 000000
2015-11-26 02:52:21,0.10,1.43,0.00,17.74,22.22,26.06,14.93,49.70,1021.47,2054.15,3013.82,2758.20,3044.40,599.69,609.51,23.30,0000 0000 0000 0000 000000
2015-11-26 02:57:22,0.07,1.43,0.00,17.77,22.24,25.99,14.92,49.68,1021.40,2054.05,3012.10,2757.01,3043.02,599.40,609.01,23.35,0000 0000 0000 0000 000000
2015-11-26 03:02:23,0.09,1.44,0.00,17.78,22.24,26.06,14.95,49.83,1021.38,2054.07,3010.44,2755.91,3041.74,600.10,609.62,23.40,0000 0000 0000 0000 000000
2015-11-26 03:07:24,0.09,1.44,0.00,17.79,22.26,26.11,14.92,49.69,1021.50,2054.03,3008.61,2754.75,3040.48,599.57,609.28,23.45,0000 0000 0000 0000 000000
2015-11-26 03:12:26,0.09,1.45,0.00,17.82,22.27,26.07,14.93,49.38,1021.49,2054.02,3006.79,2753.53,3039.01,599.89,609.40,23.50,0000 0000 0000 0000 000000
2015-11-26 03:17:27,0.11,1.45,0.00,17.83,22.27,26.12,14.98,49.98,1021.27,2054.01,3004.79,2752.19,3037.35,600.39,609.78,23.55,0000 0000 0000 0000 000000
2015-11-26 03:22:29,0.11,1.46,0.00,17.85,22.29,26.10,14.88,49.87,1021.09,2054.03,3002.77,2750.87,3035.62,599.96,609.16,23.60,0000 0000 0000 0000 000000
2015-11-26 03:27:30,0.11,1.46,0.00,17.87,22.29,26.09,14.94,49.83,1021.52,2054.01,3000.67,2749.46,3033.83,599.77,609.31,23.65,0000 0000 0000 0000 000000
2015-11-26 03:32:31,0.09,1.47,0.00,17.89,22.31,26.07,15.00,50.14,1021.17,2054.00,2998.78,2748.28,3032.44,599.85,609.23,23.70,0000 0000 0000 0000 000000
2015-11-26 03:37:32,0.09,1.48,0.00,17.89,22.32,26.11,14.92,50.21,1020.95,2054.00,2996.96,2746.98,3030.96,599.62,608.69,23.75,0000 0000 0000 0000 000000
2015-11-26 03:42:33,0.11,1.48,0.00,17.90,22.33,26.08,14.94,49.81,1021.26,2054.00,2995.14,2745.64,3029.40,599.77,609.09,23.80,0000 0000 0000 0000 000000
2015-11-26 03:47:34,0.09,1.49,0.00,17.92,22.34,26.17,14.93,49.77,1021.51,2054.00,2993.23,2744.35,3027.84,599.85,609.28,23.85,0000 0000 0000 0000 000000
2015-11-26 03:52:36,0.09,1.49,0.00,17.94,22.35,26.18,14.93,49.76,1021.47,2054.00,2991.45,2743.13,3026.39,600.27,609.71,23.90,0000 0000 0000 0000 000000
2015-11-26 03:57:37,0.09,1.50,0.00,17.94,22.37,26.06,14.94,49.85,1021.51,2053.99,2989.70,2741.90,3024.89,599.78,609.09,23.95,0000 0000 0000 0000 000000
2015-11-26 04:02:38,0.10,1.50,0.00,17.93,22.37,26.17,14.93,49.69,1021.39,2053.98,2987.94,2740.72,3023.62,600.12,609.38,24.00,0000 0000 0000 0000 000000
2015-11-26 04:07:40,0.10,1.51,0.00,17.82,22.39,26.25,14.97,50.08,1021.12,2053.97,2986.01,2739.35,3021.98,600.04,609.31,24.05,0000 0000 0000 0000 000000
2015-11-26 04:12:42,0.11,1.51,0.00,17.68,22.39,26.27,14.98,50.08,1021.03,2053.97,2984.06,2737.96,3020.39,599.92,609.51,24.10,0000 0000 0000 0000 000000
2015-11-26 04:17:43,0.12,1.52,0.00,17.61,22.39,26.33,14.99,50.38,1020.99,2053.97,2981.98,2736.48,3018.63,599.89,609.57,24.15,0000 0000 0000 0000 000000
2015-11-26 04:22:44,0.08,1.52,0.00,17.59,22.39,26.24,14.97,50.41,1020.99,2053.96,2980.14,2735.33,3017.19,600.11,609.72,24.20,0000 0000 0000 0000 000000
2015-11-26 04:27:46,0.10,1.53,0.00,17.57,22.39,26.31,15.00,50.18,1021.00,2053.96,2978.21,2733.98,3015.60,600.27,609.85,24.25,0000 0000 0000 0000 000000
2015-11-26 04:32:46,0.12,1.53,0.00,17.57,22.39,26.26,14.94,50.23,1021.26,2053.97,2976.26,2732.61,3013.91,599.74,609.72,24.30,0000 0000 0000 0000 000000
2015-11-26 04:37:48,0.09,1.54,0.00,17.57,22.38,26.26,14.97,49.89,1021.51,2053.96,2974.30,2731.31,3012.41,600.09,610.17,24.35,0000 0000 0000 0000 000000
2015-11-26 04:42:49,0.09,1.54,0.00,17.59,22.37,26.26,14.98,49.91,1021.55,2053.97,2972.48,2730.13,3011.09,600.26,610.33,24.40,0000 0000 0000 0000 000000
2015-11-26 04:47:50,0.09,1.55,0.00,17.61,22.37,26.28,14.88,49.99,1021.58,2053.95,2970.70,2728.97,3009.80,600.24,610.32,24.45,0000 0000 0000 0000 000000
2015-11-26 04:52:52,0.09,1.55,0.00,17.64,22.37,26.29,14.99,49.83,1021.58,2053.90,2968.90,2727.84,3008.52,600.05,610.03,24.50,0000 0000 0000 0000 000000
2015-11-26 04:57:53,0.09,1.56,0.00,17.66,22.37,26.29,14.95,49.99,1021.57,2053.96,2967.10,2726.77,3007.37,599.89,609.89,24.55,0000 0000 0000 0000 000000
2015-11-26 05:02:54,0.08,1.56,0.00,17.69,22.36,26.25,14.99,50.10,1021.51,2053.95,2965.30,2725.66,3006.18,600.03,609.80,24.60,0000 0000 0000 0000 000000
2015-11-26 05:07:56,0.09,1.57,0.00,17.72,22.35,26.26,15.00,50.09,1021.50,2053.97,2963.55,2724.54,3004.87,600.12,609.92,24.65,0000 0000 0000 0000 000000
2015-11-26 05:12:57,0.05,1.57,0.00,17.74,22.35,26.25,14.94,50.25,1021.41,2053.96,2961.99,2723.78,3003.92,599.91,609.66,24.70,0000 0000 0000 0000 000000
2015-11-26 05:17:58,0.08,1.57,0.00,17.75,22.35,26.19,15.01,50.22,1021.35,2053.96,2960.55,2722.79,3002.84,600.16,609.70,24.75,0000 0000 0000 0000 000000
2015-11-26 05:23:00,0.08,1.58,0.00,17.78,22.35,26.23,14.87,50.44,1020.93,2053.94,2958.97,2721.79,3001.73,599.68,608.93,24.80,0000 0000 0000 0000 000000
2015-11-26 05:28:01,0.06,1.58,0.00,17.81,22.35,26.20,14.87,50.40,1020.61,2053.97,2957.61,2720.88,3000.80,599.78,608.83,24.85,0000 0000 0000 0000 000000
2015-11-26 05:33:02,0.12,1.59,0.00,17.84,22.35,26.22,14.98,50.55,1020.42,2053.94,2955.84,2719.35,2999.20,600.02,608.96,24.90,0000 0000 0000 0000 000000
2015-11-26 05:38:04,0.13,1.59,0.00,17.87,22.36,26.26,14.96,50.48,1020.52,2053.91,2953.89,2717.62,2997.45,600.08,608.96,24.95,0000 0000 0000 0000 000000
2015-11-26 05:43:05,0.04,1.60,0.00,17.88,22.37,26.29,14.97,50.75,1020.41,2053.93,2952.61,2716.83,2996.39,600.03,609.01,25.00,0000 0000 0000 0000 000000
2015-11-26 05:48:06,0.14,1.60,0.00,17.91,22.37,26.24,14.93,50.58,1020.25,2053.93,2950.56,2715.05,2994.41,599.89,608.56,25.05,0000 0000 0000 0000 000000
2015-11-26 05:53:07,0.07,1.61,0.00,17.92,22.37,26.25,14.94,50.37,1020.37,2053.92,2949.19,2714.03,2993.22,600.28,608.91,25.10,0000 0000 0000 0000 000000
2015-11-26 05:58:09,0.06,1.61,0.00,17.94,22.38,26.25,14.91,50.33,1020.59,2053.89,2948.13,2713.16,2992.24,600.42,609.17,25.15,0000 0000 0000 0000 000000
2015-11-26 06:03:10,0.06,1.61,0.00,17.96,22.39,26.21,14.87,50.08,1020.96,2053.88,2947.14,2712.66,2991.57,599.61,608.48,25.20,0000 0000 0000 0000 000000
2015-11-26 06:08:11,0.03,1.62,0.00,17.99,22.39,26.30,14.90,50.12,1021.01,2053.87,2946.15,2712.02,2990.90,599.85,608.76,25.25,0000 0000 0000 0000 000000
2015-11-26 06:13:13,0.04,1.62,0.00,17.99,22.40,26.24,14.97,50.23,1021.01,2053.68,2945.16,2711.35,2990.03,600.17,609.07,25.30,0000 0000 0000 0000 000000
2015-11-26 06:18:14,0.02,1.62,0.00,17.99,22.42,26.28,14.92,50.21,1021.01,2053.29,2944.09,2710.55,2989.12,600.04,608.81,25.35,0000 0000 0000 0000 000000
2015-11-26 06:23:15,0.05,1.62,0.00,18.01,22.42,26.25,15.00,50.35,1021.02,2053.26,2943.11,2709.96,2988.28,600.41,609.13,25.40,0000 0000 0000 0000 000000
2015-11-26 06:28:16,0.05,1.62,0.00,18.04,22.43,26.31,14.92,50.27,1021.29,2053.15,2942.02,2709.11,2987.58,600.10,609.09,25.45,0000 0000 0000 0000 000000
2015-11-26 06:33:18,0.05,1.63,0.00,18.07,22.44,26.29,14.99,50.11,1021.50,2053.06,2940.96,2708.44,2986.75,600.02,609.07,25.50,0000 0000 0000 0000 000000
2015-11-26 06:38:19,0.05,1.63,0.00,18.09,22.46,26.26,14.92,50.16,1021.51,2053.04,2939.88,2707.77,2985.91,599.79,608.86,25.55,0000 0000 0000 0000 000000
2015-11-26 06:43:21,0.05,1.63,0.00,18.10,22.47,26.35,14.92,50.09,1021.51,2053.02,2938.87,2707.03,2985.08,600.21,609.04,25.60,0000 0000 0000 0000 000000
2015-11-26 06:48:22,0.06,1.64,0.00,18.12,22.49,26.27,14.95,50.25,1021.51,2053.00,2937.92,2706.33,2984.33,600.53,609.48,25.65,0000 0000 0000 0000 000000
2015-11-26 06:53:23,0.06,1.64,0.00,18.15,22.50,26.32,14.90,50.23,1021.50,2053.00,2936.85,2705.70,2983.54,600.18,609.06,25.70,0000 0000 0000 0000 000000
2015-11-26 06:58:24,0.04,1.64,0.00,18.18,22.52,26.35,14.97,50.35,1021.50,2053.00,2935.90,2705.01,2982.82,600.38,609.26,25.75,0000 0000 0000 0000 000000
2015-11-26 07:03:26,0.07,1.64,0.00,18.19,22.54,26.32,14.99,50.42,1021.37,2053.00,2934.81,2704.22,2982.00,600.12,608.91,25.80,0000 0000 0000 0000 000000
2015-11-26 07:08:27,0.05,1.65,0.00,18.19,22.55,26.40,14.96,50.23,1021.07,2053.00,2933.79,2703.72,2981.14,599.88,608.40,25.85,0000 0000 0000 0000 000000
2015-11-26 07:13:28,0.05,1.65,0.00,18.20,22.57,26.37,14.81,50.23,1021.01,2053.00,2932.77,2702.97,2980.38,599.66,608.20,25.90,0000 0000 0000 0000 000000
2015-11-26 07:18:30,0.06,1.65,0.00,18.20,22.59,26.44,14.93,50.51,1021.09,2052.98,2931.72,2702.14,2979.55,599.82,608.36,25.95,0000 0000 0000 0000 000000
2015-11-26 07:23:31,0.07,1.66,0.00,18.19,22.59,26.40,14.89,50.19,1021.46,2052.97,2930.66,2701.34,2978.59,599.58,608.33,26.00,0000 0000 0000 0000 000000
2015-11-26 07:28:33,0.05,1.66,0.00,18.20,22.61,26.46,14.86,50.11,1021.50,2052.93,2929.63,2700.67,2977.71,599.45,608.20,26.05,0000 0000 0000 0000 000000
2015-11-26 07:33:34,0.05,1.66,0.00,18.22,22.62,26.50,14.89,50.45,1021.58,2052.90,2928.47,2699.88,2976.76,599.83,608.60,26.10,0000 0000 0000 0000 000000
2015-11-26 07:38:35,0.02,1.66,0.00,18.21,22.64,26.47,14.91,50.32,1021.73,2052.45,2927.35,2698.97,2975.82,599.99,608.81,26.16,0000 0000 0000 0000 000000
2015-11-26 07:43:36,0.05,1.67,0.00,18.21,22.64,26.51,14.95,50.31,1021.98,2052.19,2926.06,2698.07,2974.75,600.22,609.14,26.21,0000 0000 0000 0000 000000
2015-11-26 07:48:37,0.05,1.67,0.00,18.22,22.65,26.50,14.94,50.38,1021.99,2052.12,2924.96,2697.30,2973.90,600.00,609.05,26.26,0000 0000 0000 0000 000000
2015-11-26 07:53:39,0.07,1.67,0.00,18.22,22.67,26.56,14.92,50.36,1021.97,2052.07,2923.78,2696.54,2973.02,599.92,608.95,26.31,0000 0000 0000 0000 000000
2015-11-26 07:58:40,0.06,1.67,0.00,18.21,22.67,26.52,14.92,50.19,1022.00,2052.04,2922.67,2695.73,2972.09,600.06,609.17,26.36,0000 0000 0000 0000 000000
2015-11-26 08:03:41,0.06,1.68,0.00,18.22,22.68,26.49,14.90,50.24,1022.02,2052.04,2921.51,2694.90,2971.10,599.88,608.87,26.41,0000 0000 0000 0000 000000
2015-11-26 08:08:42,0.06,1.68,0.00,18.22,22.69,26.55,14.94,50.02,1022.29,2052.01,2920.27,2694.04,2970.10,599.94,609.16,26.46,0000 0000 0000 0000 000000
2015-11-26 08:13:44,0.06,1.68,0.00,18.22,22.69,26.60,14.91,50.24,1022.47,2052.00,2919.07,2693.25,2969.20,599.83,609.17,26.51,0000 0000 0000 0000 000000
2015-11-26 08:18:45,0.08,1.69,0.00,18.21,22.70,26.58,14.97,50.11,1022.48,2052.00,2917.74,2692.33,2968.16,599.86,609.08,26.56,0000 0000 0000 0000 000000
2015-11-26 08:23:47,0.07,1.69,0.00,18.22,22.71,26.55,14.98,50.38,1022.43,2052.00,2916.52,2691.48,2967.26,600.16,609.39,26.61,0000 0000 0000 0000 000000
2015-11-26 08:28:48,0.06,1.69,0.00,18.22,22.72,26.55,14.94,50.27,1022.46,2052.00,2915.34,2690.62,2966.27,600.24,609.54,26.66,0000 0000 0000 0000 000000
2015-11-26 08:33:49,0.07,1.70,0.00,18.22,22.72,26.60,14.97,50.55,1022.48,2052.00,2914.04,2689.72,2965.21,599.90,609.20,26.71,0000 0000 0000 0000 000000
2015-11-26 08:38:50,0.08,1.70,0.00,18.19,22.72,26.62,15.01,50.45,1022.36,2052.00,2912.67,2688.75,2964.15,600.05,609.31,26.76,0000 0000 0000 0000 000000
2015-11-26 08:43:51,0.06,1.71,0.00,18.19,22.72,26.61,14.95,50.40,1022.07,2051.99,2911.36,2687.83,2963.02,600.15,609.26,26.81,0000 0000 0000 0000 000000
2015-11-26 08:48:53,0.07,1.71,0.00,18.21,22.73,26.64,14.91,50.27,1022.12,2051.99,2909.96,2686.95,2961.98,599.63,608.66,26.86,0000 0000 0000 0000 000000
2015-11-26 08:53:54,0.08,1.71,0.00,18.22,22.74,26.65,15.03,50.56,1022.44,2051.99,2908.61,2686.04,2960.92,600.23,609.53,26.91,0000 0000 0000 0000 000000
2015-11-26 08:58:55,0.07,1.72,0.00,18.19,22.74,26.65,14.92,50.23,1022.48,2051.98,2907.31,2685.12,2959.85,599.59,609.11,26.96,0000 0000 0000 0000 000000
2015-11-26 09:03:57,0.08,1.72,0.00,18.19,22.74,26.64,14.91,50.23,1022.20,2051.98,2905.85,2684.29,2958.83,599.93,609.13,27.01,0000 0000 0000 0000 000000
2015-11-26 09:08:58,0.08,1.72,0.00,18.19,22.74,26.65,14.99,50.41,1022.01,2051.96,2904.52,2683.27,2957.74,600.06,609.22,27.06,0000 0000 0000 0000 000000
2015-11-26 09:13:59,0.07,1.73,0.00,18.19,22.74,26.65,14.85,50.34,1022.14,2051.93,2903.05,2682.26,2956.61,600.11,609.29,27.11,0000 0000 0000 0000 000000
2015-11-26 09:19:01,0.08,1.73,0.00,18.19,22.74,26.64,14.88,50.49,1022.39,2051.94,2901.73,2681.36,2955.63,599.91,609.15,27.16,0000 0000 0000 0000 000000
2015-11-26 09:24:02,0.07,1.74,0.00,18.17,22.74,26.62,15.03,50.33,1022.48,2051.93,2900.41,2680.47,2954.56,599.95,609.36,27.21,0000 0000 0000 0000 000000
2015-11-26 09:29:03,0.07,1.74,0.00,18.17,22.74,26.61,14.90,50.34,1022.46,2051.87,2899.02,2679.52,2953.47,599.80,609.20,27.26,0000 0000 0000 0000 000000
2015-11-26 09:34:04,0.08,1.74,0.00,18.17,22.74,26.61,14.99,50.38,1022.48,2051.93,2897.72,2678.66,2952.48,600.26,609.61,27.31,0000 0000 0000 0000 000000
2015-11-26 09:39:06,0.07,1.75,0.00,18.17,22.74,26.59,14.89,50.34,1022.48,2051.96,2896.44,2677.80,2951.53,599.72,609.05,27.36,0000 0000 0000 0000 000000
2015-11-26 09:44:07,0.06,1.75,0.00,18.17,22.74,26.59,14.95,50.22,1022.48,2051.93,2895.06,2676.86,2950.42,599.69,609.10,27.41,0000 0000 0000 0000 000000
2015-11-26 09:49:08,0.07,1.76,0.00,18.17,22.74,26.61,14.91,50.25,1022.48,2051.92,2893.68,2675.93,2949.44,599.85,609.26,27.46,0000 0000 0000 0000 000000
2015-11-26 09:54:09,0.06,1.76,0.00,18.17,22.74,26.65,14.90,50.38,1022.18,2051.74,2892.35,2674.88,2948.30,599.95,609.17,27.51,0000 0000 0000 0000 000000
2015-11-26 09:59:10,0.08,1.76,0.00,18.17,22.74,26.62,14.94,50.55,1022.07,2051.81,2890.97,2673.97,2947.18,600.20,609.29,27.56,0000 0000 0000 0000 000000
2015-11-26 10:04:11,0.06,1.77,0.00,18.17,22.73,26.64,14.96,50.49,1022.37,2051.82,2889.69,2673.07,2946.19,600.02,609.31,27.61,0000 0000 0000 0000 000000
2015-11-26 10:09:13,0.08,1.77,0.00,18.16,22.72,26.61,14.96,50.30,1022.45,2051.84,2888.53,2672.23,2945.30,599.85,609.21,27.66,0000 0000 0000 0000 000000
2015-11-26 10:14:14,0.04,1.77,0.00,18.16,22.72,26.64,14.95,50.33,1022.48,2051.68,2887.51,2671.57,2944.45,600.08,609.57,27.71,0000 0000 0000 0000 000000
2015-11-26 10:19:15,0.04,1.78,0.00,18.17,22.72,26.58,14.91,50.08,1022.50,2051.73,2886.55,2670.86,2943.71,599.89,609.33,27.76,0000 0000 0000 0000 000000
2015-11-26 10:24:16,0.07,1.78,0.00,18.17,22.72,26.65,14.92,50.10,1022.80,2051.79,2885.52,2670.04,2942.90,600.08,609.72,27.81,0000 0000 0000 0000 000000
2015-11-26 10:29:17,0.07,1.78,0.00,18.19,22.72,26.64,14.96,50.09,1022.95,2051.85,2884.42,2669.33,2942.06,599.90,609.50,27.86,0000 0000 0000 0000 000000
2015-11-26 10:34:18,0.05,1.78,0.00,18.19,22.72,26.62,14.95,50.13,1022.94,2051.85,2883.47,2668.76,2941.28,600.23,609.93,27.91,0000 0000 0000 0000 000000
2015-11-26 10:39:20,0.05,1.79,0.00,18.21,22.72,26.61,14.90,50.24,1022.94,2051.80,2882.53,2668.02,2940.52,599.98,609.51,27.96,0000 0000 0000 0000 000000
2015-11-26 10:44:21,0.06,1.79,0.00,18.22,22.72,26.59,14.97,50.24,1022.78,2051.77,2881.50,2667.25,2939.80,600.10,609.53,28.01,0000 0000 0000 0000 000000
2015-11-26 10:49:22,0.02,1.79,0.00,18.22,22.72,26.56,14.87,50.17,1022.64,2051.66,2880.60,2666.68,2938.97,599.93,609.33,28.06,0000 0000 0000 0000 000000
2015-11-26 10:54:23,0.18,1.80,0.00,18.22,22.72,26.62,14.97,50.38,1022.51,2051.55,2878.15,2665.08,2937.18,600.11,609.44,28.11,0000 0000 0000 0000 000000
2015-11-26 10:59:25,0.09,1.81,0.00,18.24,22.72,26.63,14.94,50.37,1022.49,2051.43,2875.13,2663.18,2935.18,599.92,609.20,28.16,0000 0000 0000 0000 000000
2015-11-26 11:04:26,0.08,1.81,0.00,18.26,22.72,26.61,14.86,50.38,1022.48,2051.61,2874.10,2662.57,2934.40,599.84,609.06,28.21,0000 0000 0000 0000 000000
2015-11-26 11:09:27,0.05,1.81,0.00,18.27,22.72,26.60,14.97,50.25,1022.48,2051.54,2873.00,2661.85,2933.57,600.31,609.52,28.26,0000 0000 0000 0000 000000
2015-11-26 11:14:29,0.03,1.82,0.00,18.25,22.72,26.67,14.93,50.63,1022.47,2051.40,2872.01,2661.04,2932.78,600.08,609.28,28.31,0000 0000 0000 0000 000000
2015-11-26 11:19:30,0.09,1.82,0.00,18.24,22.72,26.64,15.00,50.58,1022.37,2051.67,2870.90,2660.32,2931.95,600.10,609.34,28.36,0000 0000 0000 0000 000000
2015-11-26 11:24:31,0.06,1.82,0.00,18.24,22.72,26.63,14.95,50.58,1022.23,2051.64,2869.78,2659.53,2931.00,600.02,609.11,28.41,0000 0000 0000 0000 000000
2015-11-26 11:29:33,0.05,1.83,0.00,18.24,22.71,26.61,14.88,50.48,1022.44,2051.50,2868.71,2658.83,2930.09,599.44,608.67,28.46,0000 0000 0000 0000 000000
2015-11-26 11:34:34,0.05,1.83,0.00,18.22,22.71,26.65,14.94,50.52,1022.34,2051.40,2867.60,2658.00,2929.18,599.92,609.22,28.51,0000 0000 0000 0000 000000
2015-11-26 11:39:35,0.09,1.83,0.00,18.20,22.72,26.67,14.96,50.37,1022.05,2051.61,2866.60,2657.17,2928.34,600.32,609.26,28.56,0000 0000 0000 0000 000000
2015-11-26 11:44:36,0.03,1.84,0.00,18.21,22.72,26.61,14.93,50.43,1022.30,2051.32,2865.38,2656.38,2927.41,600.01,609.26,28.61,0000 0000 0000 0000 000000
2015-11-26 11:49:38,0.07,1.84,0.00,18.22,22.72,26.65,14.93,50.52,1022.48,2051.31,2864.30,2655.67,2926.47,599.98,609.29,28.66,0000 0000 0000 0000 000000
2015-11-26 11:54:39,0.04,1.84,0.00,18.20,22.72,26.63,15.00,50.44,1022.49,2051.24,2863.36,2654.86,2925.55,599.90,609.24,28.71,0000 0000 0000 0000 000000
2015-11-26 11:59:40,0.05,1.84,0.00,18.19,22.72,26.66,14.94,50.40,1022.51,2051.12,2862.22,2654.03,2924.61,600.07,609.43,28.76,0000 0000 0000 0000 000000
2015-11-26 12:04:41,0.15,1.85,0.00,18.19,22.72,26.63,14.87,50.41,1022.60,2051.26,2860.34,2652.80,2923.48,599.67,609.20,28.81,0000 0000 0000 0000 000000
2015-11-26 12:09:42,0.10,1.85,0.00,18.19,22.72,26.61,14.96,50.48,1022.74,2051.33,2858.47,2651.67,2921.81,599.74,609.28,28.86,0000 0000 0000 0000 000000
2015-11-26 12:14:43,0.06,1.86,0.00,18.19,22.72,26.63,14.94,50.38,1022.75,2051.28,2856.82,2650.60,2920.69,599.71,609.27,28.91,0000 0000 0000 0000 000000
2015-11-26 12:19:45,0.06,1.86,0.00,18.18,22.72,26.66,14.99,50.65,1022.69,2051.09,2855.59,2649.63,2919.63,599.98,609.41,28.96,0000 0000 0000 0000 000000
2015-11-26 12:24:46,0.04,1.87,0.00,18.17,22.71,26.66,14.93,50.64,1022.87,2051.14,2854.59,2648.98,2918.88,600.13,609.73,29.01,0000 0000 0000 0000 000000
2015-11-26 12:29:47,0.06,1.87,0.00,18.17,22.71,26.59,14.99,50.67,1022.66,2051.14,2853.63,2648.16,2918.04,600.23,609.75,29.06,0000 0000 0000 0000 000000
2015-11-26 12:34:48,0.05,1.87,0.00,18.17,22.71,26.63,14.93,50.63,1022.55,2051.11,2852.69,2647.60,2917.21,600.12,609.57,29.11,0000 0000 0000 0000 000000
2015-11-26 12:39:50,0.06,1.87,0.00,18.16,22.70,26.64,14.89,50.70,1022.63,2051.20,2851.71,2646.97,2916.43,599.78,609.31,29.16,0000 0000 0000 0000 000000
2015-11-26 12:44:51,0.05,1.88,0.00,18.14,22.70,26.62,15.04,50.80,1022.57,2051.21,2850.80,2646.12,2915.74,600.33,609.86,29.21,0000 0000 0000 0000 000000
2015-11-26 12:49:52,0.05,1.88,0.00,18.14,22.69,26.61,14.89,50.67,1022.65,2051.16,2849.72,2645.45,2914.95,599.96,609.55,29.26,0000 0000 0000 0000 000000
2015-11-26 12:54:53,0.04,1.88,0.00,18.14,22.69,26.62,14.95,50.66,1022.49,2051.16,2848.76,2644.90,2914.11,599.91,609.35,29.31,0000 0000 0000 0000 000000